Platteville, WI

9:02 PM CST on November 20, 2019 (GMT -0600)
Platteville Municipal

Weather History for KPVB - October, 2019

Change the Weather History Date:

Wednesday, October 23, 2019

  Actual Average (KDBQ) Record (KDBQ)
Temperature  
Mean Temperature 44 °F -  
Max Temperature 54 °F 58 °F 85 °F (1899)
Min Temperature 33 °F 42 °F 21 °F (1895)
Degree Days  
Heating Degree Days 22    
Moisture  
Dew Point 36 °F    
Average Humidity 82    
Maximum Humidity 100    
Minimum Humidity 42    
Precipitation  
Precipitation 0.22 in - - ()
Sea Level Pressure  
Sea Level Pressure 29.91 in    
Wind  
Wind Speed 7 mph ()    
Max Wind Speed 14 mph    
Max Gust Speed -    
Visibility 9.8 miles    
Events      
Averages and records for this station are not official NWS values.
T = Trace of Precipitation, MM = Missing Value Source: Averaged Metar Reports

Daily Weather History Graph

Daily Weather History Graph

Search for Another Location

Airport or City:

Astronomy

Oct. 23, 2019 Rise Set
Actual Time 7:24 AM CDT 6:07 PM CDT
Civil Twilight 6:55 AM CDT 6:36 PM CDT
Nautical Twilight 6:22 AM CDT 7:08 PM CDT
Astronomical Twilight 5:49 AM CDT 7:41 PM CDT
Moon 1:33 AM CDT (10/23) 4:06 PM CDT (10/23)
Length of Visible Light 11h 40m
Length of Day
10h 42m
Waning Crescent, 26% of the Moon is Illuminated
Oct 23
Waning Crescent
Oct 27
New
Nov 4
First Quarter
Nov 12
Full
Nov 19
Last Quarter

Hourly Weather History & Observations

Time (CDT) Temp. Windchill Dew Point Humidity Pressure Visibility Wind Dir Wind Speed Gust Speed Precip Events Conditions
12:55 AM 40.8 °F 33.3 °F 32.9 °F 73% 29.78 in 10.0 mi WSW 13.8 mph - N/A   Clear
1:55 AM 39.0 °F 32.8 °F 32.4 °F 77% 29.78 in 10.0 mi SW 9.2 mph - N/A   Clear
2:15 AM 37.8 °F 30.7 °F 32.9 °F 83% 29.78 in 10.0 mi SW 10.4 mph - N/A   Clear
2:35 AM 37.6 °F 31.0 °F 32.9 °F 83% 29.79 in 10.0 mi SW 9.2 mph - N/A   Clear
2:55 AM 38.3 °F 30.5 °F 32.9 °F 81% 29.80 in 10.0 mi SW 12.7 mph - N/A   Clear
3:15 AM 37.8 °F 30.7 °F 32.5 °F 81% 29.80 in 10.0 mi SW 10.4 mph - N/A   Clear
3:35 AM 37.6 °F 31.0 °F 32.9 °F 83% 29.80 in 10.0 mi SW 9.2 mph - N/A   Clear
3:55 AM 37.6 °F 31.0 °F 32.9 °F 83% 29.81 in 10.0 mi SW 9.2 mph - N/A   Clear
4:15 AM 37.2 °F 31.2 °F 32.9 °F 84% 29.82 in 10.0 mi SW 8.1 mph - N/A   Clear
4:35 AM 37.4 °F 31.4 °F 33.3 °F 85% 29.83 in 10.0 mi WSW 8.1 mph - N/A   Clear
4:55 AM 36.9 °F 30.7 °F 33.6 °F 88% 29.83 in 10.0 mi SW 8.1 mph - N/A   Clear
5:15 AM 36.0 °F 30.3 °F 33.4 °F 91% 29.85 in 10.0 mi SW 6.9 mph - N/A   Clear
5:35 AM 35.6 °F 29.9 °F 33.4 °F 92% 29.85 in 10.0 mi SW 6.9 mph - N/A   Clear
5:55 AM 34.7 °F 29.6 °F 33.3 °F 94% 29.85 in 10.0 mi SW 5.8 mph - N/A   Clear
6:15 AM 34.7 °F 28.8 °F 32.9 °F 93% 29.85 in 10.0 mi SW 6.9 mph - N/A   Clear
6:35 AM 33.4 °F 29.1 °F 32.7 °F 97% 29.85 in 10.0 mi SSW 4.6 mph - N/A   Clear
7:15 AM 34.2 °F - 33.1 °F 96% 29.86 in 10.0 mi Calm Calm - N/A   Clear
7:35 AM 34.3 °F - 33.1 °F 95% 29.86 in 10.0 mi Calm Calm - N/A   Clear
7:55 AM 34.3 °F 31.4 °F 32.9 °F 94% 29.87 in 10.0 mi SSW 3.5 mph - N/A   Clear
8:15 AM 34.7 °F 31.8 °F 33.3 °F 94% 29.88 in 10.0 mi South 3.5 mph - N/A   Clear
8:55 AM 37.8 °F 35.3 °F 35.4 °F 91% 29.89 in 10.0 mi South 3.5 mph - N/A   Clear
9:15 AM 38.5 °F - 35.8 °F 90% 29.90 in 10.0 mi Calm Calm - N/A   Scattered Clouds
9:35 AM 39.4 °F 36.1 °F 36.7 °F 90% 29.91 in 10.0 mi SSW 4.6 mph - N/A   Mostly Cloudy
9:55 AM 41.4 °F 36.8 °F 36.9 °F 84% 29.92 in 10.0 mi SW 6.9 mph - N/A   Mostly Cloudy
10:15 AM 42.3 °F 37.3 °F 36.3 °F 79% 29.92 in 10.0 mi SSW 8.1 mph - N/A   Mostly Cloudy
10:55 AM 43.3 °F 40.7 °F 36.3 °F 76% 29.91 in 10.0 mi South 4.6 mph - N/A   Scattered Clouds
11:15 AM 45.5 °F 43.2 °F 35.6 °F 68% 29.92 in 10.0 mi SW 4.6 mph - N/A   Clear
11:35 AM 47.7 °F - 36.0 °F 64% 29.92 in 10.0 mi West 4.6 mph - N/A   Scattered Clouds
11:55 AM 48.2 °F - 34.7 °F 60% 29.91 in 10.0 mi Calm Calm - N/A   Scattered Clouds
12:15 PM 50.4 °F - 35.4 °F 57% 29.91 in 10.0 mi SW 3.5 mph - N/A   Clear
12:35 PM 50.2 °F - 35.8 °F 58% 29.90 in 10.0 mi NW 3.5 mph - N/A   Mostly Cloudy
12:55 PM 51.1 °F - 34.7 °F 54% 29.88 in 10.0 mi Calm Calm - N/A   Mostly Cloudy
1:35 PM 52.0 °F - 36.0 °F 54% 29.87 in 10.0 mi Calm Calm - N/A   Mostly Cloudy
1:55 PM 52.7 °F - 35.1 °F 51% 29.87 in 10.0 mi Calm Calm - N/A   Mostly Cloudy
2:35 PM 54.3 °F - 35.1 °F 48% 29.86 in 10.0 mi Calm Calm - N/A   Mostly Cloudy
2:55 PM 54.3 °F - 31.8 °F 42% 29.86 in 10.0 mi SW 3.5 mph - N/A   Overcast
3:15 PM 54.7 °F - 32.5 °F 43% 29.86 in 10.0 mi Calm Calm - N/A   Overcast
3:35 PM 54.5 °F - 33.8 °F 46% 29.85 in 10.0 mi East 3.5 mph - N/A   Mostly Cloudy
3:55 PM 54.3 °F - 35.8 °F 50% 29.85 in 10.0 mi SE 3.5 mph - N/A   Mostly Cloudy
4:15 PM 53.8 °F - 36.0 °F 51% 29.89 in 10.0 mi WNW 5.8 mph - N/A   Mostly Cloudy
4:35 PM 50.9 °F - 38.7 °F 63% 29.92 in 10.0 mi WNW 8.1 mph - N/A   Overcast
4:55 PM 48.7 °F - 39.2 °F 70% 29.92 in 7.0 mi WNW 10.4 mph - 0.02 in   Overcast
5:15 PM 46.4 °F 44.3 °F 41.0 °F 81% 29.94 in 10.0 mi NW 4.6 mph - N/A   Overcast
5:35 PM 46.0 °F 43.1 °F 42.1 °F 86% 29.94 in 10.0 mi NW 5.8 mph - N/A   Overcast
5:55 PM 45.5 °F 43.2 °F 42.3 °F 88% 29.94 in 10.0 mi North 4.6 mph - 0.01 in   Overcast
6:15 PM 44.6 °F 38.4 °F 42.1 °F 91% 29.95 in 10.0 mi NNW 12.7 mph - 0.01 in   Overcast
6:35 PM 43.7 °F 38.1 °F 40.5 °F 88% 29.97 in 5.0 mi North 10.4 mph - 0.09 in   Overcast
6:55 PM 42.3 °F 35.9 °F 41.7 °F 98% 29.98 in 7.0 mi North 11.5 mph - 0.16 in   Overcast
7:15 PM 41.4 °F 34.3 °F 39.9 °F 95% 29.99 in 10.0 mi North 12.7 mph - 0.02 in   Overcast
7:35 PM 41.0 °F 33.9 °F 39.9 °F 96% 29.98 in 10.0 mi North 12.7 mph - 0.03 in   Overcast
8:15 PM 41.0 °F 34.7 °F 40.8 °F 99% 29.99 in 10.0 mi North 10.4 mph - N/A   Overcast
8:35 PM 41.0 °F 34.7 °F 40.5 °F 98% 30.00 in 10.0 mi North 10.4 mph - N/A   Overcast
8:55 PM 41.0 °F 35.2 °F 40.8 °F 99% 30.01 in 10.0 mi North 9.2 mph - N/A   Overcast
9:15 PM 41.0 °F 34.7 °F 41.0 °F 100% 30.01 in 10.0 mi North 10.4 mph - N/A   Overcast
9:35 PM 41.0 °F 35.2 °F 41.0 °F 100% 30.02 in 10.0 mi North 9.2 mph - N/A   Overcast
9:55 PM 41.0 °F 36.4 °F 41.0 °F 100% 30.03 in 10.0 mi NNW 6.9 mph - N/A   Overcast
10:15 PM 40.6 °F 36.7 °F 40.6 °F 100% 30.04 in 10.0 mi NW 5.8 mph - N/A   Overcast
10:35 PM 40.6 °F 36.7 °F 40.6 °F 100% 30.04 in 10.0 mi NW 5.8 mph - N/A   Overcast
10:55 PM 40.8 °F 36.2 °F 40.8 °F 100% 30.05 in 10.0 mi NW 6.9 mph - N/A   Overcast
11:15 PM 40.6 °F 36.0 °F 40.6 °F 100% 30.05 in 10.0 mi NW 6.9 mph - N/A   Overcast
11:35 PM 40.6 °F 35.4 °F 40.6 °F 100% 30.05 in 10.0 mi NW 8.1 mph - N/A   Overcast
11:55 PM 40.5 °F 35.8 °F 40.5 °F 100% 30.05 in 10.0 mi NW 6.9 mph - N/A   Overcast